sat.trackr.live / text

‹ back to catalog

TIANQI-17

NORAD 64059 · 2025-105B

PAYLOAD ACTIVE UNKNOWN

§ Identity

Operator
Country
PRC
Launch date
2025-05-19
Launch site
YSLA
Launch vehicle
Mass (kg)
RCS (m²)

External: N2YO · Heavens-Above · Gunter

§ Orbital elements

Epoch: 2026-05-25T05:21:47.877120Z

Period
102.92 min
Inclination
44.9785°
Eccentricity
0.0011965
Mean motion
13.99146210 rev/d
Perigee alt
888.0 km
Apogee alt
905.5 km
Semi-major
7,274.9 km
B*
5.1384e-5
RAAN
123.8747°
Arg perigee
276.1706°
Mean anomaly
83.7763°
Rev number
5,198

§ Raw data

TIANQI-171 64059U 25105B   26145.22347080 -.00000054  00000+0  51384-4 0  99952 64059  44.9785 123.8747 0011965 276.1706  83.7763 13.99146210 51989

JSON: /api/v1/satellites/64059 · /tle

For live sub-satellite position, see the globe view (requires WebGL).

§ Visibility from observer

Set your observer location to see the next 7 days of passes ≥ 10°. The values pass through the URL so the page stays shareable.

No JS? Fill the form by hand. The geolocation button needs JavaScript.